When you browse on this site, cookies collect data to enhance your experience and personalize the content and advertising you see.
Visit our Privacy Policy to learn more. By continuing to use the site, you agree to this use of cookies and data.
  • en Suisse
  • Liste des pays
  • À 7 jours
  • Température de l'eau
  • Carte météo
  • Widgets météo
  • user-avatar
    Se connecter

    Météo par heure à Sherpur

    Ce jour, 26 Février, Mercredi

    Heure Température Précipitation Vent Pression Humidité
    00:00 +6°C° 0 mm 2 m/s 608 mmHg 45%
    01:00 +5°C° 0 mm 2 m/s 608 mmHg 45%
    02:00 +5°C° 0 mm 2 m/s 607 mmHg 45%
    03:00 +5°C° 0 mm 2 m/s 607 mmHg 46%
    04:00 +4°C° 0 mm 2 m/s 607 mmHg 46%
    05:00 +4°C° 0 mm 2 m/s 606 mmHg 45%
    06:00 +4°C° 0 mm 2 m/s 606 mmHg 46%
    07:00 +5°C° 0 mm 2 m/s 607 mmHg 46%
    08:00 +5°C° 0 mm 2 m/s 607 mmHg 46%
    09:00 +7°C° 0 mm 2 m/s 608 mmHg 46%
    10:00 +8°C° 0 mm 2 m/s 608 mmHg 46%
    11:00 +10°C° 0 mm 2 m/s 609 mmHg 46%
    12:00 +12°C° 0 mm 2 m/s 609 mmHg 46%
    13:00 +13°C° 0 mm 2 m/s 609 mmHg 46%
    14:00 +14°C° 0 mm 2 m/s 609 mmHg 45%
    15:00 +13°C° 0 mm 2 m/s 609 mmHg 45%
    16:00 +13°C° 0 mm 2 m/s 609 mmHg 45%
    17:00 +13°C° 0 mm 2 m/s 609 mmHg 45%
    18:00 +12°C° 0 mm 1 m/s 609 mmHg 48%
    19:00 +11°C° 0 mm 1 m/s 609 mmHg 51%
    20:00 +11°C° 0 mm 1 m/s 609 mmHg 54%
    21:00 +10°C° 0 mm 1 m/s 609 mmHg 55%
    22:00 +10°C° 0 mm 1 m/s 609 mmHg 55%
    23:00 +10°C° 0 mm 1 m/s 609 mmHg 56%

    Demain, 27 Février, Jeudi

    Heure Température Précipitation Vent Pression Humidité
    00:00 +8°C° 0 mm 0 m/s 608 mmHg 57%
    01:00 +8°C° 0 mm 0 m/s 608 mmHg 59%
    02:00 +7°C° 0 mm 0 m/s 607 mmHg 61%
    03:00 +7°C° 0 mm 0 m/s 607 mmHg 63%
    04:00 +6°C° 0 mm 0 m/s 607 mmHg 64%
    05:00 +6°C° 0 mm 0 m/s 606 mmHg 65%
    06:00 +6°C° 0 mm 0 m/s 607 mmHg 64%
    07:00 +7°C° 0 mm 0 m/s 607 mmHg 64%
    08:00 +7°C° 0 mm 0 m/s 608 mmHg 63%
    09:00 +8°C° 0 mm 0 m/s 608 mmHg 58%
    10:00 +11°C° 0 mm 1 m/s 609 mmHg 53%
    11:00 +12°C° 0 mm 1 m/s 609 mmHg 49%
    12:00 +12°C° 0 mm 1 m/s 609 mmHg 48%
    13:00 +12°C° 0 mm 1 m/s 609 mmHg 48%
    14:00 +13°C° 0 mm 1 m/s 608 mmHg 48%
    15:00 +12°C° 0.1 mm 1 m/s 608 mmHg 50%
    16:00 +12°C° 0.1 mm 1 m/s 608 mmHg 53%
    17:00 +12°C° 0.1 mm 1 m/s 608 mmHg 56%
    18:00 +11°C° 0.1 mm 1 m/s 608 mmHg 59%
    19:00 +11°C° 0.1 mm 1 m/s 608 mmHg 63%
    20:00 +10°C° 0.1 mm 1 m/s 608 mmHg 66%
    21:00 +10°C° 0.1 mm 1 m/s 608 mmHg 68%
    22:00 +9°C° 0.1 mm 1 m/s 607 mmHg 70%
    23:00 +9°C° 0.1 mm 1 m/s 607 mmHg 72%

    Après-demain, 28 Février, Vendredi

    Heure Température Précipitation Vent Pression Humidité
    00:00 +8°C° 0.7 mm 1 m/s 607 mmHg 77%
    01:00 +8°C° 0.7 mm 1 m/s 606 mmHg 83%
    02:00 +7°C° 0.7 mm 1 m/s 606 mmHg 88%
    03:00 +6°C° 1.2 mm 1 m/s 605 mmHg 89%
    04:00 +6°C° 1.2 mm 1 m/s 605 mmHg 89%
    05:00 +6°C° 1.2 mm 1 m/s 605 mmHg 90%
    06:00 +6°C° 0 mm 1 m/s 605 mmHg 90%
    07:00 +6°C° 0 mm 1 m/s 606 mmHg 89%
    08:00 +6°C° 0 mm 1 m/s 606 mmHg 89%
    09:00 +7°C° 0.1 mm 1 m/s 607 mmHg 85%
    10:00 +8°C° 0.1 mm 1 m/s 607 mmHg 82%
    11:00 +8°C° 0.1 mm 1 m/s 607 mmHg 79%
    12:00 +9°C° 0.1 mm 1 m/s 607 mmHg 75%
    13:00 +10°C° 0.1 mm 1 m/s 607 mmHg 71%
    14:00 +10°C° 0.1 mm 1 m/s 607 mmHg 67%
    15:00 +10°C° 0.6 mm 1 m/s 607 mmHg 66%
    16:00 +10°C° 0.6 mm 1 m/s 607 mmHg 65%
    17:00 +10°C° 0.6 mm 1 m/s 606 mmHg 64%
    18:00 +10°C° 0.2 mm 1 m/s 607 mmHg 65%
    19:00 +8°C° 0.2 mm 2 m/s 607 mmHg 67%
    20:00 +7°C° 0.2 mm 2 m/s 607 mmHg 69%
    21:00 +8°C° 0.1 mm 1 m/s 607 mmHg 71%
    22:00 +8°C° 0.1 mm 1 m/s 607 mmHg 72%
    23:00 +8°C° 0.1 mm 1 m/s 607 mmHg 74%

    29 Février, Samedi

    Heure Température Précipitation Vent Pression Humidité
    00:00 +7°C° 0 mm 1 m/s 607 mmHg 75%
    01:00 +7°C° 0 mm 1 m/s 606 mmHg 77%
    02:00 +7°C° 0 mm 1 m/s 606 mmHg 79%
    03:00 +6°C° 0 mm 1 m/s 606 mmHg 81%
    04:00 +5°C° 0 mm 0 m/s 605 mmHg 82%
    05:00 +5°C° 0 mm 0 m/s 605 mmHg 84%
    06:00 +5°C° 0 mm 0 m/s 605 mmHg 82%
    07:00 +5°C° 0 mm 0 m/s 606 mmHg 80%
    08:00 +6°C° 0 mm 0 m/s 606 mmHg 77%
    09:00 +6°C° 0 mm 0 m/s 607 mmHg 74%
    10:00 +7°C° 0 mm 0 m/s 607 mmHg 70%
    11:00 +9°C° 0 mm 1 m/s 607 mmHg 66%
    12:00 +10°C° 0 mm 1 m/s 607 mmHg 64%
    13:00 +10°C° 0 mm 1 m/s 607 mmHg 62%
    14:00 +11°C° 0 mm 1 m/s 607 mmHg 60%
    15:00 +11°C° 0 mm 1 m/s 607 mmHg 60%
    16:00 +11°C° 0 mm 1 m/s 607 mmHg 61%
    17:00 +11°C° 0 mm 1 m/s 607 mmHg 61%
    18:00 +10°C° 0 mm 1 m/s 607 mmHg 66%
    19:00 +9°C° 0 mm 1 m/s 607 mmHg 70%
    20:00 +9°C° 0 mm 1 m/s 607 mmHg 75%
    21:00 +8°C° 0 mm 1 m/s 607 mmHg 76%
    22:00 +8°C° 0 mm 1 m/s 607 mmHg 77%
    23:00 +6°C° 0 mm 0 m/s 607 mmHg 78%

    1 Mars, Dimanche

    Heure Température Précipitation Vent Pression Humidité
    00:00 +6°C° 0 mm 0 m/s 607 mmHg 78%
    01:00 +5°C° 0 mm 0 m/s 607 mmHg 78%
    02:00 +5°C° 0 mm 0 m/s 606 mmHg 79%
    03:00 +5°C° 0 mm 0 m/s 606 mmHg 79%
    04:00 +5°C° 0 mm 0 m/s 606 mmHg 80%
    05:00 +5°C° 0 mm 0 m/s 606 mmHg 81%
    06:00 +5°C° 0 mm 0 m/s 607 mmHg 79%
    07:00 +6°C° 0 mm 0 m/s 607 mmHg 78%
    08:00 +6°C° 0 mm 0 m/s 607 mmHg 76%
    09:00 +7°C° 0 mm 0 m/s 608 mmHg 72%
    10:00 +8°C° 0 mm 0 m/s 608 mmHg 67%
    11:00 +9°C° 0 mm 0 m/s 608 mmHg 63%
    12:00 +9°C° 0 mm 0 m/s 608 mmHg 60%
    13:00 +10°C° 0 mm 0 m/s 608 mmHg 57%
    14:00 +12°C° 0 mm 1 m/s 607 mmHg 54%
    15:00 +12°C° 0 mm 1 m/s 607 mmHg 53%
    16:00 +12°C° 0 mm 1 m/s 607 mmHg 51%
    17:00 +11°C° 0 mm 0 m/s 607 mmHg 50%
    18:00 +11°C° 0 mm 1 m/s 607 mmHg 53%
    19:00 +11°C° 0 mm 1 m/s 607 mmHg 57%
    20:00 +10°C° 0 mm 1 m/s 608 mmHg 60%
    21:00 +9°C° 0 mm 1 m/s 608 mmHg 62%
    22:00 +8°C° 0 mm 0 m/s 608 mmHg 63%
    23:00 +8°C° 0 mm 0 m/s 608 mmHg 64%

    2 Mars, Lundi

    Heure Température Précipitation Vent Pression Humidité
    00:00 +7°C° 0 mm 0 m/s 607 mmHg 66%
    01:00 +7°C° 0 mm 0 m/s 607 mmHg 67%
    02:00 +7°C° 0 mm 0 m/s 607 mmHg 68%
    03:00 +6°C° 0 mm 0 m/s 607 mmHg 70%
    04:00 +6°C° 0 mm 0 m/s 606 mmHg 71%
    05:00 +5°C° 0 mm 0 m/s 606 mmHg 73%
    06:00 +6°C° 0 mm 0 m/s 606 mmHg 72%
    07:00 +6°C° 0 mm 0 m/s 606 mmHg 71%
    08:00 +7°C° 0 mm 0 m/s 607 mmHg 70%
    09:00 +8°C° 0 mm 0 m/s 607 mmHg 65%
    10:00 +9°C° 0 mm 0 m/s 607 mmHg 61%
    11:00 +11°C° 0 mm 1 m/s 607 mmHg 56%
    12:00 +11°C° 0 mm 1 m/s 607 mmHg 52%
    13:00 +12°C° 0 mm 1 m/s 607 mmHg 49%
    14:00 +13°C° 0 mm 1 m/s 607 mmHg 45%
    15:00 +13°C° 0 mm 1 m/s 607 mmHg 44%
    16:00 +13°C° 0 mm 1 m/s 607 mmHg 42%
    17:00 +13°C° 0 mm 1 m/s 607 mmHg 41%
    18:00 +12°C° 0 mm 1 m/s 607 mmHg 45%
    19:00 +11°C° 0 mm 1 m/s 607 mmHg 50%
    20:00 +11°C° 0 mm 1 m/s 607 mmHg 54%
    21:00 +10°C° 0 mm 1 m/s 607 mmHg 56%
    22:00 +10°C° 0 mm 1 m/s 607 mmHg 57%
    23:00 +9°C° 0 mm 1 m/s 607 mmHg 58%
    Voir plus